map of BIA home
BIA - Airport
Location
City:  Bastia, Corse (Corsica), France
Name:Poretta
ICAO:LFKB
IATA:BIA

Details
Type:Airport (Aerodrome, Airfield)
Use:Public/Civil
Latitude:4233'00"N (42.550000)
Longitude:929'05"E (9.484722)
Elevation:26 ft (8 m)
Variation:2.54E (WMM2015 magnetic declination)
0.11 annual change
Runways:1
Longest:8268 × 148 ft (2520 × 45 m), paved

Time
Time Zone:UTC+1 (DST+2)
Local Time:

Weather
METAR:LFKB 221830Z AUTO 35010KT 9999 SCT072 25/20 Q1011 NOSIG
TAF:LFKB 221400Z 2215/2315 02008KT 9999 FEW020 SCT040
TEMPO 2221/2306 BKN014 TX27/2312Z TN19/2305Z

Related Locations
Nearby:
Farthest:CHT: 12128 mi / 19517 km
Waitangi [Tuuta], CIT, NZ

Find:

   beyond  
but within

Other Information
Maps:
NOTAMs:
Links:
Sources:

  
  • flag of France
  • flag of Corse (Corsica)
  

Sectional Chart

Flight Planning
at skyvector.com

Satellite Image

Google Maps Satellite view

 

Copyright © 2004-2018 Karl L. Swartz. All rights reserved.
The Great Circle Mapper name and logo are trademarks of the Great Circle Mapper.
All other trademarks mentioned herein belong to their respective owners.
Please see credits for attibutions and further copyright information.

  Follow gcmap on Facebook Follow gcmap on Twitter Follow gcmap on Google+ GCmap on LinkedIn

hCard Microformat

Geo Microformat